Time,TemperatureF,DewpointF,PressureIn,WindDirection,WindDirectionDegrees,WindSpeedMPH,WindSpeedGustMPH,Humidity,HourlyPrecipIn,Conditions,Clouds,dailyrainin,SolarRadiationWatts/m^2,SoftwareType,DateUTC
2013-05-12 00:00:00,33.0,31.0,-100.00,WNW,292,4.0,-999.0,94,0.03,,,-99.99,0.000000,,2013-05-12 04:00:00,
2013-05-12 00:43:00,33.0,31.0,-100.00,WNW,292,4.0,-999.0,94,0.03,,,-99.99,0.000000,,2013-05-12 04:43:00,
2013-05-12 00:52:00,33.0,31.0,-100.00,WNW,292,4.0,-999.0,94,0.03,,,-99.99,0.000000,,2013-05-12 04:52:00,
2013-05-12 01:00:00,33.0,31.0,-100.00,WNW,292,4.0,-999.0,93,0.01,,,-99.99,0.000000,,2013-05-12 05:00:00,
2013-05-12 01:42:00,33.0,31.0,-100.00,WNW,292,4.0,-999.0,93,0.01,,,-99.99,0.000000,,2013-05-12 05:42:00,
2013-05-12 01:52:00,33.0,31.0,-100.00,WNW,292,4.0,-999.0,93,0.01,,,-99.99,0.000000,,2013-05-12 05:52:00,
2013-05-12 02:00:00,32.0,31.0,-100.00,WNW,292,3.0,-999.0,95,-99.99,,,-99.99,0.000000,,2013-05-12 06:00:00,
2013-05-12 02:42:00,32.0,31.0,-100.00,WNW,292,3.0,-999.0,95,-99.99,,,-99.99,0.000000,,2013-05-12 06:42:00,
2013-05-12 02:52:00,32.0,31.0,-100.00,WNW,292,3.0,-999.0,95,-99.99,,,-99.99,0.000000,,2013-05-12 06:52:00,
2013-05-12 04:00:00,32.0,31.0,-100.00,West,270,5.0,-999.0,95,0.01,,,-99.99,0.000000,,2013-05-12 08:00:00,
2013-05-12 04:42:00,32.0,31.0,-100.00,West,270,5.0,-999.0,95,0.01,,,-99.99,0.000000,,2013-05-12 08:42:00,
2013-05-12 04:53:00,32.0,31.0,-100.00,West,270,5.0,-999.0,95,0.01,,,-99.99,0.000000,,2013-05-12 08:53:00,
2013-05-12 05:00:00,32.0,31.0,-100.00,NW,315,4.0,-999.0,94,0.01,,,-99.99,0.000000,,2013-05-12 09:00:00,
2013-05-12 05:43:00,32.0,31.0,-100.00,NW,315,4.0,-999.0,94,0.01,,,-99.99,0.000000,,2013-05-12 09:43:00,
2013-05-12 05:53:00,32.0,31.0,-100.00,NW,315,4.0,-999.0,94,0.01,,,-99.99,0.000000,,2013-05-12 09:53:00,
2013-05-12 06:00:00,32.0,30.0,-100.00,West,270,3.0,-999.0,92,-99.99,,,-99.99,0.000000,,2013-05-12 10:00:00,
2013-05-12 06:42:00,32.0,30.0,-100.00,West,270,3.0,-999.0,92,-99.99,,,-99.99,0.000000,,2013-05-12 10:42:00,
2013-05-12 06:52:00,32.0,30.0,-100.00,West,270,3.0,-999.0,92,-99.99,,,-99.99,0.000000,,2013-05-12 10:52:00,
2013-05-12 07:00:00,31.0,28.0,-100.00,West,270,5.0,-999.0,87,-99.99,,,-99.99,1.160000,,2013-05-12 11:00:00,
2013-05-12 07:42:00,31.0,28.0,-100.00,West,270,5.0,-999.0,87,-99.99,,,-99.99,1.160000,,2013-05-12 11:42:00,
2013-05-12 07:52:00,31.0,28.0,-100.00,West,270,5.0,-999.0,87,-99.99,,,-99.99,1.160000,,2013-05-12 11:52:00,
2013-05-12 09:00:00,31.0,26.0,-100.00,WSW,247,5.0,-999.0,81,-99.99,,,-99.99,19.719999,,2013-05-12 13:00:00,
2013-05-12 09:42:00,31.0,26.0,-100.00,WSW,247,5.0,-999.0,81,-99.99,,,-99.99,19.719999,,2013-05-12 13:42:00,
2013-05-12 09:52:00,31.0,26.0,-100.00,WSW,247,5.0,-999.0,81,-99.99,,,-99.99,19.719999,,2013-05-12 13:52:00,
2013-05-12 10:00:00,31.0,25.0,-100.00,WNW,292,6.0,-999.0,77,-99.99,,,-99.99,60.320000,,2013-05-12 14:00:00,
2013-05-12 10:42:00,31.0,25.0,-100.00,WNW,292,6.0,-999.0,77,-99.99,,,-99.99,60.320000,,2013-05-12 14:42:00,
2013-05-12 10:52:00,31.0,25.0,-100.00,WNW,292,6.0,-999.0,77,-99.99,,,-99.99,60.320000,,2013-05-12 14:52:00,
2013-05-12 11:00:00,32.0,24.0,-100.00,WSW,247,6.0,-999.0,73,0.01,,,-99.99,121.800003,,2013-05-12 15:00:00,
2013-05-12 11:42:00,32.0,24.0,-100.00,WSW,247,6.0,-999.0,73,0.01,,,-99.99,121.800003,,2013-05-12 15:42:00,
2013-05-12 11:53:00,32.0,24.0,-100.00,WSW,247,6.0,-999.0,73,0.01,,,-99.99,121.800003,,2013-05-12 15:53:00,
2013-05-12 12:00:00,34.0,24.0,-100.00,WSW,247,8.0,-999.0,68,0.12,,,-99.99,336.399994,,2013-05-12 16:00:00,
2013-05-12 12:42:00,34.0,24.0,-100.00,WSW,247,8.0,-999.0,68,0.12,,,-99.99,336.399994,,2013-05-12 16:42:00,
2013-05-12 12:53:00,34.0,24.0,-100.00,WSW,247,8.0,-999.0,68,0.12,,,-99.99,336.399994,,2013-05-12 16:53:00,
2013-05-12 13:00:00,33.0,26.0,-100.00,WSW,247,6.0,-999.0,72,0.04,,,-99.99,212.279999,,2013-05-12 17:00:00,
2013-05-12 13:42:00,33.0,26.0,-100.00,WSW,247,6.0,-999.0,72,0.04,,,-99.99,212.279999,,2013-05-12 17:42:00,
2013-05-12 13:53:00,33.0,26.0,-100.00,WSW,247,6.0,-999.0,72,0.04,,,-99.99,212.279999,,2013-05-12 17:53:00,
2013-05-12 14:00:00,34.0,25.0,-100.00,West,270,6.0,-999.0,70,-99.99,,,-99.99,251.720001,,2013-05-12 18:00:00,
2013-05-12 14:42:00,34.0,25.0,-100.00,West,270,6.0,-999.0,70,-99.99,,,-99.99,251.720001,,2013-05-12 18:42:00,
2013-05-12 14:52:00,34.0,25.0,-100.00,West,270,6.0,-999.0,70,-99.99,,,-99.99,251.720001,,2013-05-12 18:52:00,
2013-05-12 15:00:00,34.0,26.0,-100.00,WNW,292,5.0,-999.0,72,-99.99,,,-99.99,220.399994,,2013-05-12 19:00:00,
2013-05-12 15:42:00,34.0,26.0,-100.00,WNW,292,5.0,-999.0,72,-99.99,,,-99.99,220.399994,,2013-05-12 19:42:00,
2013-05-12 15:52:00,34.0,26.0,-100.00,WNW,292,5.0,-999.0,72,-99.99,,,-99.99,220.399994,,2013-05-12 19:52:00,
2013-05-12 16:00:00,35.0,26.0,-100.00,West,270,5.0,-999.0,70,-99.99,,,-99.99,314.359985,,2013-05-12 20:00:00,
2013-05-12 16:42:00,35.0,26.0,-100.00,West,270,5.0,-999.0,70,-99.99,,,-99.99,314.359985,,2013-05-12 20:42:00,
2013-05-12 16:52:00,35.0,26.0,-100.00,West,270,5.0,-999.0,70,-99.99,,,-99.99,314.359985,,2013-05-12 20:52:00,
2013-05-12 17:00:00,37.0,26.0,-100.00,SSW,202,7.0,-999.0,62,-99.99,,,-99.99,544.039978,,2013-05-12 21:00:00,
2013-05-12 17:42:00,37.0,26.0,-100.00,SSW,202,7.0,-999.0,62,-99.99,,,-99.99,544.039978,,2013-05-12 21:42:00,
2013-05-12 17:53:00,37.0,26.0,-100.00,SSW,202,7.0,-999.0,62,-99.99,,,-99.99,544.039978,,2013-05-12 21:53:00,
2013-05-12 18:00:00,39.0,27.0,-100.00,WSW,247,6.0,-999.0,62,-99.99,,,-99.99,523.159973,,2013-05-12 22:00:00,
2013-05-12 18:42:00,39.0,27.0,-100.00,WSW,247,6.0,-999.0,62,-99.99,,,-99.99,523.159973,,2013-05-12 22:42:00,
2013-05-12 18:52:00,39.0,27.0,-100.00,WSW,247,6.0,-999.0,62,-99.99,,,-99.99,523.159973,,2013-05-12 22:52:00,
2013-05-12 19:00:00,39.0,26.0,-100.00,WNW,292,5.0,-999.0,58,-99.99,,,-99.99,386.279999,,2013-05-12 23:00:00,
2013-05-12 19:42:00,39.0,26.0,-100.00,WNW,292,5.0,-999.0,58,-99.99,,,-99.99,386.279999,,2013-05-12 23:42:00,
2013-05-12 19:52:00,39.0,26.0,-100.00,WNW,292,5.0,-999.0,58,-99.99,,,-99.99,386.279999,,2013-05-12 23:52:00,
2013-05-12 21:00:00,35.0,24.0,-100.00,West,270,1.0,-999.0,64,-99.99,,,-99.99,41.759998,,2013-05-13 01:00:00,
2013-05-12 21:42:00,35.0,24.0,-100.00,West,270,1.0,-999.0,64,-99.99,,,-99.99,41.759998,,2013-05-13 01:42:00,
2013-05-12 21:52:00,35.0,24.0,-100.00,West,270,1.0,-999.0,64,-99.99,,,-99.99,41.759998,,2013-05-13 01:52:00,
2013-05-12 22:00:00,32.0,25.0,-100.00,West,270,0.0,-999.0,74,-99.99,,,-99.99,1.160000,,2013-05-13 02:00:00,
2013-05-12 22:42:00,32.0,25.0,-100.00,West,270,0.0,-999.0,74,-99.99,,,-99.99,1.160000,,2013-05-13 02:42:00,
2013-05-12 22:52:00,32.0,25.0,-100.00,West,270,0.0,-999.0,74,-99.99,,,-99.99,1.160000,,2013-05-13 02:52:00,
2013-05-12 23:00:00,30.0,25.0,-100.00,West,270,0.0,-999.0,79,-99.99,,,-99.99,0.000000,,2013-05-13 03:00:00,
2013-05-12 23:42:00,30.0,25.0,-100.00,West,270,0.0,-999.0,79,-99.99,,,-99.99,0.000000,,2013-05-13 03:42:00,
2013-05-12 23:53:00,30.0,25.0,-100.00,West,270,0.0,-999.0,79,-99.99,,,-99.99,0.000000,,2013-05-13 03:53:00,